Home   Weather   Thule Air Base   Past weeks
Flag for Greenland

Past Weather in Thule Air Base, Greenland — Yesterday and Last 2 Weeks

Now
57 °F

Sunny.


Feels Like: 51 °F
Forecast: 51 / 46 °F
Wind: 38 mph from South

Location: Thule A. B.

Current Time: Jul 23, 2019 at 2:45:43 pm

Latest Report: Jul 23, 2019 at 1:56 pm


Visibility: N/A

Pressure: 29.67 "Hg

Humidity: 44%

Dew Point: 36 °F

Location of Thule Air BaseLocation

Past Weather in Thule Air Base — Graph

°F

Thule Air Base Temperature Yesterday

Maximum temperature yesterday: 50 °F (at 12:56 pm)
Minimum temperature yesterday: 39 °F (at 12:16 am)
Average temperature yesterday: 45 °F

High & Low Weather Summary for the Past Weeks

 TemperatureHumidityPressure
High62 °F (Jul 11, 3:56 pm)100% (Jul 8, 12:06 pm)30.15 "Hg (Jul 8, 12:06 pm)
Low37 °F (Jul 10, 5:26 am)34% (Jul 11, 1:56 pm)29.51 "Hg (Jul 19, 2:56 am)
Average48 °F78%29.82 "Hg
* Reported Jul 8 12:06 pm — Jul 23 12:56 pm, Thule Air Base. Weather by CustomWeather, © 2019

Note: Actual official high and low records may vary slightly from our data, if they occured in-between our weather recording intervals... More about our weather records

Advertising

Thule Air Base Weather History for the Previous 24 Hours

Scroll right to see more
 ConditionsComfort  
Time TempWeatherWind HumidityBarometerVisibility
12:56 pm
Tue, Jul 23
55 °FSunny.39 mph51%29.68 "HgN/A
11:56 am55 °FSunny.31 mph51%29.70 "HgN/A
10:56 am54 °FSunny.33 mph54%29.71 "HgN/A
9:56 am54 °FSunny.29 mph54%29.73 "HgN/A
8:56 am52 °FSunny.23 mph58%29.75 "HgN/A
7:56 am52 °FSunny.12 mph58%29.76 "HgN/A
7:16 am52 °FPassing clouds.13 mph58%29.76 "HgN/A
6:56 am52 °FSunny.15 mph58%29.76 "HgN/A
5:56 am50 °FSunny.14 mph67%29.76 "HgN/A
4:56 am48 °FSunny.3 mph71%29.79 "HgN/A
3:56 am46 °FSunny.16 mph76%29.79 "HgN/A
2:56 am46 °FSunny.18 mph76%29.80 "HgN/A
1:56 am45 °FPassing clouds.13 mph93%29.81 "HgN/A
1:43 am45 °FScattered clouds.13 mph93%29.81 "HgN/A
12:56 am45 °FPassing clouds.18 mph93%29.80 "HgN/A
11:56 pm
Mon, Jul 22
45 °FScattered clouds.17 mph93%29.81 "HgN/A
10:56 pm46 °FPassing clouds.16 mph87%29.83 "HgN/A
10:26 pm48 °FOvercast.13 mph82%29.84 "HgN/A
10:17 pm48 °FOvercast.14 mph82%29.84 "HgN/A
9:56 pm47 °FOvercast.7 mph81%29.84 "HgN/A
8:56 pm46 °FPartly sunny.20 mph87%29.83 "HgN/A
7:56 pm46 °FOvercast.22 mph92%29.85 "HgN/A
6:56 pm46 °FOvercast.20 mph87%29.86 "HgN/A
6:02 pm46 °FMore clouds than sun.13 mph87%29.86 "HgN/A
5:56 pm46 °FMore clouds than sun.10 mph87%29.87 "HgN/A
4:56 pm50 °FOvercast.15 mph76%29.87 "HgN/A
4:14 pm50 °FPartly sunny.15 mph76%29.87 "HgN/A
3:56 pm50 °FScattered clouds.14 mph76%29.87 "HgN/A
2:56 pm50 °FPartly sunny.17 mph71%29.88 "HgN/A
Weather by CustomWeather, © 2019

See weather overview